<?xml version="1.0" encoding="UTF-8" standalone="no" ?>
<gpx xmlns="http://www.topografix.com/GPX/1/1" xmlns:xsi="http://www.w3.org/2001/XMLSchema-instance" xsi:schemaLocation="http://www.topografix.com/GPX/1/1 http://www.topografix.com/GPX/1/1/gpx.xsd" version="1.1" creator="VisuGPX - https://www.visugpx.com">
  <metadata>
    <name>StNazaire_Tour_19-22km</name>
    <desc><![CDATA[gnerando idor:8373925_8827428_8835599]]></desc>
  </metadata>
  <trk>
    <name><![CDATA[StNazaire_Tour_18.8km-8373925]]></name>
    <extensions>
      <line xmlns="http://www.topografix.com/GPX/gpx_style/0/2">
        <color>0000FF</color>
        <width>4</width>
      </line>
    </extensions>
    <trkseg>
      <trkpt lat="47.27162" lon="-2.2285">
        <ele>6</ele>
        <time>2023-11-13T09:06:02Z</time>
      </trkpt>
      <trkpt lat="47.27138" lon="-2.22848">
        <ele>6</ele>
        <time>2023-11-13T09:06:34Z</time>
      </trkpt>
      <trkpt lat="47.27084" lon="-2.22856">
        <ele>6</ele>
        <time>2023-11-13T09:07:47Z</time>
      </trkpt>
      <trkpt lat="47.27002" lon="-2.22851">
        <ele>7</ele>
        <time>2023-11-13T09:09:36Z</time>
      </trkpt>
      <trkpt lat="47.2694" lon="-2.22836">
        <ele>7</ele>
        <time>2023-11-13T09:11:00Z</time>
      </trkpt>
      <trkpt lat="47.26677" lon="-2.22752">
        <ele>6</ele>
        <time>2023-11-13T09:16:59Z</time>
      </trkpt>
      <trkpt lat="47.26632" lon="-2.2273">
        <ele>6</ele>
        <time>2023-11-13T09:18:02Z</time>
      </trkpt>
      <trkpt lat="47.26563" lon="-2.22645">
        <ele>6</ele>
        <time>2023-11-13T09:20:02Z</time>
      </trkpt>
      <trkpt lat="47.26503" lon="-2.22563">
        <ele>5</ele>
        <time>2023-11-13T09:21:51Z</time>
      </trkpt>
      <trkpt lat="47.26479" lon="-2.22559">
        <ele>5</ele>
        <time>2023-11-13T09:22:24Z</time>
      </trkpt>
      <trkpt lat="47.26473" lon="-2.22541">
        <ele>5</ele>
        <time>2023-11-13T09:22:42Z</time>
      </trkpt>
      <trkpt lat="47.26449" lon="-2.22538">
        <ele>4</ele>
        <time>2023-11-13T09:23:14Z</time>
      </trkpt>
      <trkpt lat="47.26399" lon="-2.22558">
        <ele>5</ele>
        <time>2023-11-13T09:24:23Z</time>
      </trkpt>
      <trkpt lat="47.2635" lon="-2.22549">
        <ele>7</ele>
        <time>2023-11-13T09:25:29Z</time>
      </trkpt>
      <trkpt lat="47.2605" lon="-2.22435">
        <ele>8</ele>
        <time>2023-11-13T09:32:22Z</time>
      </trkpt>
      <trkpt lat="47.25972" lon="-2.22389">
        <ele>6</ele>
        <time>2023-11-13T09:34:15Z</time>
      </trkpt>
      <trkpt lat="47.25893" lon="-2.22328">
        <ele>4</ele>
        <time>2023-11-13T09:36:14Z</time>
      </trkpt>
      <trkpt lat="47.25871" lon="-2.22328">
        <ele>4</ele>
        <time>2023-11-13T09:36:43Z</time>
      </trkpt>
      <trkpt lat="47.25855" lon="-2.22346">
        <ele>5</ele>
        <time>2023-11-13T09:37:10Z</time>
      </trkpt>
      <trkpt lat="47.25825" lon="-2.22463">
        <ele>7</ele>
        <time>2023-11-13T09:39:03Z</time>
      </trkpt>
      <trkpt lat="47.25808" lon="-2.22566">
        <ele>7</ele>
        <time>2023-11-13T09:40:39Z</time>
      </trkpt>
      <trkpt lat="47.25801" lon="-2.22628">
        <ele>9</ele>
        <time>2023-11-13T09:41:36Z</time>
      </trkpt>
      <trkpt lat="47.25802" lon="-2.22706">
        <ele>9</ele>
        <time>2023-11-13T09:42:47Z</time>
      </trkpt>
      <trkpt lat="47.25807" lon="-2.22733">
        <ele>9</ele>
        <time>2023-11-13T09:43:12Z</time>
      </trkpt>
      <trkpt lat="47.25788" lon="-2.22758">
        <ele>7</ele>
        <time>2023-11-13T09:43:46Z</time>
      </trkpt>
      <trkpt lat="47.25772" lon="-2.22789">
        <ele>7</ele>
        <time>2023-11-13T09:44:21Z</time>
      </trkpt>
      <trkpt lat="47.25685" lon="-2.22858">
        <ele>9</ele>
        <time>2023-11-13T09:46:33Z</time>
      </trkpt>
      <trkpt lat="47.25673" lon="-2.22883">
        <ele>9</ele>
        <time>2023-11-13T09:47:01Z</time>
      </trkpt>
      <trkpt lat="47.25665" lon="-2.22937">
        <ele>9</ele>
        <time>2023-11-13T09:47:51Z</time>
      </trkpt>
      <trkpt lat="47.25658" lon="-2.22948">
        <ele>9</ele>
        <time>2023-11-13T09:48:05Z</time>
      </trkpt>
      <trkpt lat="47.25633" lon="-2.22934">
        <ele>8</ele>
        <time>2023-11-13T09:48:40Z</time>
      </trkpt>
      <trkpt lat="47.25591" lon="-2.2296">
        <ele>5</ele>
        <time>2023-11-13T09:49:41Z</time>
      </trkpt>
      <trkpt lat="47.25589" lon="-2.2303">
        <ele>2</ele>
        <time>2023-11-13T09:50:45Z</time>
      </trkpt>
      <trkpt lat="47.25597" lon="-2.23035">
        <ele>3</ele>
        <time>2023-11-13T09:50:56Z</time>
      </trkpt>
      <trkpt lat="47.25606" lon="-2.2312">
        <ele>4</ele>
        <time>2023-11-13T09:52:14Z</time>
      </trkpt>
      <trkpt lat="47.25609" lon="-2.23215">
        <ele>5</ele>
        <time>2023-11-13T09:53:40Z</time>
      </trkpt>
      <trkpt lat="47.25602" lon="-2.23223">
        <ele>4</ele>
        <time>2023-11-13T09:53:52Z</time>
      </trkpt>
      <trkpt lat="47.25601" lon="-2.23245">
        <ele>4</ele>
        <time>2023-11-13T09:54:12Z</time>
      </trkpt>
      <trkpt lat="47.25624" lon="-2.23349">
        <ele>6</ele>
        <time>2023-11-13T09:55:51Z</time>
      </trkpt>
      <trkpt lat="47.25628" lon="-2.23418">
        <ele>6</ele>
        <time>2023-11-13T09:56:54Z</time>
      </trkpt>
      <trkpt lat="47.25646" lon="-2.23509">
        <ele>7</ele>
        <time>2023-11-13T09:58:20Z</time>
      </trkpt>
      <trkpt lat="47.2565" lon="-2.23561">
        <ele>6</ele>
        <time>2023-11-13T09:59:07Z</time>
      </trkpt>
      <trkpt lat="47.25664" lon="-2.23589">
        <ele>7</ele>
        <time>2023-11-13T09:59:39Z</time>
      </trkpt>
      <trkpt lat="47.25663" lon="-2.23621">
        <ele>8</ele>
        <time>2023-11-13T10:00:08Z</time>
      </trkpt>
      <trkpt lat="47.25653" lon="-2.23667">
        <ele>9</ele>
        <time>2023-11-13T10:00:51Z</time>
      </trkpt>
      <trkpt lat="47.25655" lon="-2.23715">
        <ele>10</ele>
        <time>2023-11-13T10:01:35Z</time>
      </trkpt>
      <trkpt lat="47.25645" lon="-2.23806">
        <ele>10</ele>
        <time>2023-11-13T10:02:58Z</time>
      </trkpt>
      <trkpt lat="47.25653" lon="-2.23866">
        <ele>12</ele>
        <time>2023-11-13T10:03:54Z</time>
      </trkpt>
      <trkpt lat="47.2565" lon="-2.23913">
        <ele>11</ele>
        <time>2023-11-13T10:04:36Z</time>
      </trkpt>
      <trkpt lat="47.25654" lon="-2.23926">
        <ele>12</ele>
        <time>2023-11-13T10:04:49Z</time>
      </trkpt>
      <trkpt lat="47.2565" lon="-2.23955">
        <ele>12</ele>
        <time>2023-11-13T10:05:16Z</time>
      </trkpt>
      <trkpt lat="47.25625" lon="-2.24014">
        <ele>9</ele>
        <time>2023-11-13T10:06:19Z</time>
      </trkpt>
      <trkpt lat="47.25628" lon="-2.24029">
        <ele>9</ele>
        <time>2023-11-13T10:06:33Z</time>
      </trkpt>
      <trkpt lat="47.25649" lon="-2.24047">
        <ele>13</ele>
        <time>2023-11-13T10:07:06Z</time>
      </trkpt>
      <trkpt lat="47.25633" lon="-2.24134">
        <ele>12</ele>
        <time>2023-11-13T10:08:27Z</time>
      </trkpt>
      <trkpt lat="47.25632" lon="-2.24176">
        <ele>12</ele>
        <time>2023-11-13T10:09:05Z</time>
      </trkpt>
      <trkpt lat="47.25619" lon="-2.24224">
        <ele>10</ele>
        <time>2023-11-13T10:09:52Z</time>
      </trkpt>
      <trkpt lat="47.25617" lon="-2.24297">
        <ele>11</ele>
        <time>2023-11-13T10:10:58Z</time>
      </trkpt>
      <trkpt lat="47.25625" lon="-2.24352">
        <ele>13</ele>
        <time>2023-11-13T10:11:49Z</time>
      </trkpt>
      <trkpt lat="47.25613" lon="-2.24402">
        <ele>12</ele>
        <time>2023-11-13T10:12:37Z</time>
      </trkpt>
      <trkpt lat="47.25618" lon="-2.24454">
        <ele>12</ele>
        <time>2023-11-13T10:13:25Z</time>
      </trkpt>
      <trkpt lat="47.25628" lon="-2.24501">
        <ele>14</ele>
        <time>2023-11-13T10:14:10Z</time>
      </trkpt>
      <trkpt lat="47.25626" lon="-2.2453">
        <ele>13</ele>
        <time>2023-11-13T10:14:36Z</time>
      </trkpt>
      <trkpt lat="47.25635" lon="-2.2457">
        <ele>15</ele>
        <time>2023-11-13T10:15:14Z</time>
      </trkpt>
      <trkpt lat="47.2563" lon="-2.24614">
        <ele>15</ele>
        <time>2023-11-13T10:15:55Z</time>
      </trkpt>
      <trkpt lat="47.25618" lon="-2.24665">
        <ele>14</ele>
        <time>2023-11-13T10:16:44Z</time>
      </trkpt>
      <trkpt lat="47.25615" lon="-2.24738">
        <ele>18</ele>
        <time>2023-11-13T10:17:50Z</time>
      </trkpt>
      <trkpt lat="47.25608" lon="-2.24777">
        <ele>18</ele>
        <time>2023-11-13T10:18:26Z</time>
      </trkpt>
      <trkpt lat="47.2559" lon="-2.24808">
        <ele>16</ele>
        <time>2023-11-13T10:19:03Z</time>
      </trkpt>
      <trkpt lat="47.25563" lon="-2.24888">
        <ele>21</ele>
        <time>2023-11-13T10:20:24Z</time>
      </trkpt>
      <trkpt lat="47.25538" lon="-2.24909">
        <ele>22</ele>
        <time>2023-11-13T10:21:03Z</time>
      </trkpt>
      <trkpt lat="47.25524" lon="-2.24913">
        <ele>22</ele>
        <time>2023-11-13T10:21:22Z</time>
      </trkpt>
      <trkpt lat="47.25489" lon="-2.24923">
        <ele>21</ele>
        <time>2023-11-13T10:22:09Z</time>
      </trkpt>
      <trkpt lat="47.25481" lon="-2.24918">
        <ele>20</ele>
        <time>2023-11-13T10:22:21Z</time>
      </trkpt>
      <trkpt lat="47.25467" lon="-2.2489">
        <ele>14</ele>
        <time>2023-11-13T10:22:52Z</time>
      </trkpt>
      <trkpt lat="47.25453" lon="-2.24874">
        <ele>11</ele>
        <time>2023-11-13T10:23:16Z</time>
      </trkpt>
      <trkpt lat="47.25446" lon="-2.24874">
        <ele>10</ele>
        <time>2023-11-13T10:23:25Z</time>
      </trkpt>
      <trkpt lat="47.25439" lon="-2.24891">
        <ele>13</ele>
        <time>2023-11-13T10:23:43Z</time>
      </trkpt>
      <trkpt lat="47.25421" lon="-2.24899">
        <ele>13</ele>
        <time>2023-11-13T10:24:08Z</time>
      </trkpt>
      <trkpt lat="47.25402" lon="-2.24932">
        <ele>14</ele>
        <time>2023-11-13T10:24:48Z</time>
      </trkpt>
      <trkpt lat="47.25392" lon="-2.24969">
        <ele>14</ele>
        <time>2023-11-13T10:25:24Z</time>
      </trkpt>
      <trkpt lat="47.25394" lon="-2.24994">
        <ele>15</ele>
        <time>2023-11-13T10:25:46Z</time>
      </trkpt>
      <trkpt lat="47.25396" lon="-2.25005">
        <ele>16</ele>
        <time>2023-11-13T10:25:57Z</time>
      </trkpt>
      <trkpt lat="47.25396" lon="-2.2502">
        <ele>16</ele>
        <time>2023-11-13T10:26:10Z</time>
      </trkpt>
      <trkpt lat="47.25391" lon="-2.25036">
        <ele>15</ele>
        <time>2023-11-13T10:26:26Z</time>
      </trkpt>
      <trkpt lat="47.25393" lon="-2.25076">
        <ele>15</ele>
        <time>2023-11-13T10:27:03Z</time>
      </trkpt>
      <trkpt lat="47.25381" lon="-2.25098">
        <ele>13</ele>
        <time>2023-11-13T10:27:28Z</time>
      </trkpt>
      <trkpt lat="47.25368" lon="-2.25114">
        <ele>11</ele>
        <time>2023-11-13T10:27:51Z</time>
      </trkpt>
      <trkpt lat="47.25358" lon="-2.25182">
        <ele>10</ele>
        <time>2023-11-13T10:28:54Z</time>
      </trkpt>
      <trkpt lat="47.25351" lon="-2.25192">
        <ele>9</ele>
        <time>2023-11-13T10:29:07Z</time>
      </trkpt>
      <trkpt lat="47.25349" lon="-2.25213">
        <ele>9</ele>
        <time>2023-11-13T10:29:26Z</time>
      </trkpt>
      <trkpt lat="47.25342" lon="-2.25223">
        <ele>8</ele>
        <time>2023-11-13T10:29:39Z</time>
      </trkpt>
      <trkpt lat="47.25362" lon="-2.25256">
        <ele>11</ele>
        <time>2023-11-13T10:30:19Z</time>
      </trkpt>
      <trkpt lat="47.25358" lon="-2.25288">
        <ele>10</ele>
        <time>2023-11-13T10:30:49Z</time>
      </trkpt>
      <trkpt lat="47.25344" lon="-2.25318">
        <ele>9</ele>
        <time>2023-11-13T10:31:22Z</time>
      </trkpt>
      <trkpt lat="47.25348" lon="-2.25389">
        <ele>12</ele>
        <time>2023-11-13T10:32:26Z</time>
      </trkpt>
      <trkpt lat="47.25357" lon="-2.25395">
        <ele>13</ele>
        <time>2023-11-13T10:32:39Z</time>
      </trkpt>
      <trkpt lat="47.25353" lon="-2.25397">
        <ele>13</ele>
        <time>2023-11-13T10:32:45Z</time>
      </trkpt>
      <trkpt lat="47.25346" lon="-2.25388">
        <ele>12</ele>
        <time>2023-11-13T10:32:57Z</time>
      </trkpt>
      <trkpt lat="47.25343" lon="-2.25439">
        <ele>14</ele>
        <time>2023-11-13T10:33:44Z</time>
      </trkpt>
      <trkpt lat="47.25362" lon="-2.25495">
        <ele>17</ele>
        <time>2023-11-13T10:34:40Z</time>
      </trkpt>
      <trkpt lat="47.2537" lon="-2.25549">
        <ele>17</ele>
        <time>2023-11-13T10:35:30Z</time>
      </trkpt>
      <trkpt lat="47.25366" lon="-2.25564">
        <ele>18</ele>
        <time>2023-11-13T10:35:45Z</time>
      </trkpt>
      <trkpt lat="47.25368" lon="-2.25582">
        <ele>18</ele>
        <time>2023-11-13T10:36:02Z</time>
      </trkpt>
      <trkpt lat="47.25385" lon="-2.25632">
        <ele>19</ele>
        <time>2023-11-13T10:36:52Z</time>
      </trkpt>
      <trkpt lat="47.25394" lon="-2.25738">
        <ele>23</ele>
        <time>2023-11-13T10:38:29Z</time>
      </trkpt>
      <trkpt lat="47.25387" lon="-2.25775">
        <ele>24</ele>
        <time>2023-11-13T10:39:04Z</time>
      </trkpt>
      <trkpt lat="47.25406" lon="-2.25891">
        <ele>24</ele>
        <time>2023-11-13T10:40:52Z</time>
      </trkpt>
      <trkpt lat="47.25406" lon="-2.25943">
        <ele>25</ele>
        <time>2023-11-13T10:41:39Z</time>
      </trkpt>
      <trkpt lat="47.25414" lon="-2.25972">
        <ele>25</ele>
        <time>2023-11-13T10:42:07Z</time>
      </trkpt>
      <trkpt lat="47.25412" lon="-2.25982">
        <ele>25</ele>
        <time>2023-11-13T10:42:17Z</time>
      </trkpt>
      <trkpt lat="47.25388" lon="-2.2598">
        <ele>26</ele>
        <time>2023-11-13T10:42:49Z</time>
      </trkpt>
      <trkpt lat="47.2537" lon="-2.25986">
        <ele>27</ele>
        <time>2023-11-13T10:43:13Z</time>
      </trkpt>
      <trkpt lat="47.2536" lon="-2.25993">
        <ele>27</ele>
        <time>2023-11-13T10:43:28Z</time>
      </trkpt>
      <trkpt lat="47.25363" lon="-2.26013">
        <ele>28</ele>
        <time>2023-11-13T10:43:47Z</time>
      </trkpt>
      <trkpt lat="47.25355" lon="-2.26026">
        <ele>29</ele>
        <time>2023-11-13T10:44:03Z</time>
      </trkpt>
      <trkpt lat="47.25343" lon="-2.26033">
        <ele>30</ele>
        <time>2023-11-13T10:44:20Z</time>
      </trkpt>
      <trkpt lat="47.25335" lon="-2.26046">
        <ele>31</ele>
        <time>2023-11-13T10:44:36Z</time>
      </trkpt>
      <trkpt lat="47.2531" lon="-2.26056">
        <ele>31</ele>
        <time>2023-11-13T10:45:10Z</time>
      </trkpt>
      <trkpt lat="47.253" lon="-2.26071">
        <ele>32</ele>
        <time>2023-11-13T10:45:29Z</time>
      </trkpt>
      <trkpt lat="47.25367" lon="-2.2605">
        <ele>30</ele>
        <time>2023-11-13T10:47:01Z</time>
      </trkpt>
      <trkpt lat="47.25382" lon="-2.26038">
        <ele>28</ele>
        <time>2023-11-13T10:47:24Z</time>
      </trkpt>
      <trkpt lat="47.25387" lon="-2.26047">
        <ele>29</ele>
        <time>2023-11-13T10:47:34Z</time>
      </trkpt>
      <trkpt lat="47.25391" lon="-2.26078">
        <ele>30</ele>
        <time>2023-11-13T10:48:03Z</time>
      </trkpt>
      <trkpt lat="47.25417" lon="-2.2614">
        <ele>32</ele>
        <time>2023-11-13T10:49:09Z</time>
      </trkpt>
      <trkpt lat="47.25422" lon="-2.26257">
        <ele>36</ele>
        <time>2023-11-13T10:50:55Z</time>
      </trkpt>
      <trkpt lat="47.25419" lon="-2.26286">
        <ele>35</ele>
        <time>2023-11-13T10:51:21Z</time>
      </trkpt>
      <trkpt lat="47.25436" lon="-2.26303">
        <ele>35</ele>
        <time>2023-11-13T10:51:49Z</time>
      </trkpt>
      <trkpt lat="47.25444" lon="-2.26304">
        <ele>35</ele>
        <time>2023-11-13T10:52:00Z</time>
      </trkpt>
      <trkpt lat="47.25453" lon="-2.26325">
        <ele>34</ele>
        <time>2023-11-13T10:52:22Z</time>
      </trkpt>
      <trkpt lat="47.25456" lon="-2.2635">
        <ele>34</ele>
        <time>2023-11-13T10:52:45Z</time>
      </trkpt>
      <trkpt lat="47.25449" lon="-2.26403">
        <ele>33</ele>
        <time>2023-11-13T10:53:34Z</time>
      </trkpt>
      <trkpt lat="47.25451" lon="-2.26424">
        <ele>33</ele>
        <time>2023-11-13T10:53:53Z</time>
      </trkpt>
      <trkpt lat="47.25457" lon="-2.26461">
        <ele>34</ele>
        <time>2023-11-13T10:54:28Z</time>
      </trkpt>
      <trkpt lat="47.25476" lon="-2.26523">
        <ele>35</ele>
        <time>2023-11-13T10:55:29Z</time>
      </trkpt>
      <trkpt lat="47.25489" lon="-2.26635">
        <ele>34</ele>
        <time>2023-11-13T10:57:12Z</time>
      </trkpt>
      <trkpt lat="47.25485" lon="-2.26712">
        <ele>35</ele>
        <time>2023-11-13T10:58:22Z</time>
      </trkpt>
      <trkpt lat="47.25476" lon="-2.2672">
        <ele>35</ele>
        <time>2023-11-13T10:58:36Z</time>
      </trkpt>
      <trkpt lat="47.25481" lon="-2.26738">
        <ele>36</ele>
        <time>2023-11-13T10:58:54Z</time>
      </trkpt>
      <trkpt lat="47.25526" lon="-2.26814">
        <ele>40</ele>
        <time>2023-11-13T11:00:25Z</time>
      </trkpt>
      <trkpt lat="47.25532" lon="-2.26835">
        <ele>41</ele>
        <time>2023-11-13T11:00:46Z</time>
      </trkpt>
      <trkpt lat="47.25561" lon="-2.26859">
        <ele>42</ele>
        <time>2023-11-13T11:01:30Z</time>
      </trkpt>
      <trkpt lat="47.25618" lon="-2.26889">
        <ele>43</ele>
        <time>2023-11-13T11:02:51Z</time>
      </trkpt>
      <trkpt lat="47.25637" lon="-2.26963">
        <ele>44</ele>
        <time>2023-11-13T11:04:03Z</time>
      </trkpt>
      <trkpt lat="47.25617" lon="-2.27045">
        <ele>45</ele>
        <time>2023-11-13T11:05:22Z</time>
      </trkpt>
      <trkpt lat="47.25549" lon="-2.27212">
        <ele>43</ele>
        <time>2023-11-13T11:08:18Z</time>
      </trkpt>
      <trkpt lat="47.25531" lon="-2.27339">
        <ele>42</ele>
        <time>2023-11-13T11:10:15Z</time>
      </trkpt>
      <trkpt lat="47.2549" lon="-2.2751">
        <ele>41</ele>
        <time>2023-11-13T11:13:00Z</time>
      </trkpt>
      <trkpt lat="47.25486" lon="-2.2761">
        <ele>39</ele>
        <time>2023-11-13T11:14:30Z</time>
      </trkpt>
      <trkpt lat="47.25491" lon="-2.27648">
        <ele>39</ele>
        <time>2023-11-13T11:15:05Z</time>
      </trkpt>
      <trkpt lat="47.25507" lon="-2.27735">
        <ele>41</ele>
        <time>2023-11-13T11:16:27Z</time>
      </trkpt>
      <trkpt lat="47.2552" lon="-2.27759">
        <ele>41</ele>
        <time>2023-11-13T11:16:55Z</time>
      </trkpt>
      <trkpt lat="47.25589" lon="-2.27861">
        <ele>44</ele>
        <time>2023-11-13T11:19:05Z</time>
      </trkpt>
      <trkpt lat="47.25648" lon="-2.27914">
        <ele>44</ele>
        <time>2023-11-13T11:20:38Z</time>
      </trkpt>
      <trkpt lat="47.25685" lon="-2.2798">
        <ele>45</ele>
        <time>2023-11-13T11:21:55Z</time>
      </trkpt>
      <trkpt lat="47.25792" lon="-2.27859">
        <ele>44</ele>
        <time>2023-11-13T11:24:55Z</time>
      </trkpt>
      <trkpt lat="47.25847" lon="-2.2779">
        <ele>43</ele>
        <time>2023-11-13T11:26:31Z</time>
      </trkpt>
      <trkpt lat="47.25867" lon="-2.27717">
        <ele>42</ele>
        <time>2023-11-13T11:27:43Z</time>
      </trkpt>
      <trkpt lat="47.25875" lon="-2.27717">
        <ele>42</ele>
        <time>2023-11-13T11:27:53Z</time>
      </trkpt>
      <trkpt lat="47.25879" lon="-2.27758">
        <ele>43</ele>
        <time>2023-11-13T11:28:31Z</time>
      </trkpt>
      <trkpt lat="47.25893" lon="-2.27759">
        <ele>43</ele>
        <time>2023-11-13T11:28:50Z</time>
      </trkpt>
      <trkpt lat="47.25919" lon="-2.27742">
        <ele>43</ele>
        <time>2023-11-13T11:29:28Z</time>
      </trkpt>
      <trkpt lat="47.26009" lon="-2.27667">
        <ele>42</ele>
        <time>2023-11-13T11:31:46Z</time>
      </trkpt>
      <trkpt lat="47.26037" lon="-2.27636">
        <ele>41</ele>
        <time>2023-11-13T11:32:32Z</time>
      </trkpt>
      <trkpt lat="47.26036" lon="-2.27608">
        <ele>41</ele>
        <time>2023-11-13T11:32:58Z</time>
      </trkpt>
      <trkpt lat="47.26014" lon="-2.2756">
        <ele>41</ele>
        <time>2023-11-13T11:33:50Z</time>
      </trkpt>
      <trkpt lat="47.26014" lon="-2.27544">
        <ele>41</ele>
        <time>2023-11-13T11:34:05Z</time>
      </trkpt>
      <trkpt lat="47.26033" lon="-2.27482">
        <ele>41</ele>
        <time>2023-11-13T11:35:06Z</time>
      </trkpt>
      <trkpt lat="47.26065" lon="-2.27409">
        <ele>40</ele>
        <time>2023-11-13T11:36:25Z</time>
      </trkpt>
      <trkpt lat="47.26137" lon="-2.27332">
        <ele>38</ele>
        <time>2023-11-13T11:38:24Z</time>
      </trkpt>
      <trkpt lat="47.26214" lon="-2.27312">
        <ele>38</ele>
        <time>2023-11-13T11:40:08Z</time>
      </trkpt>
      <trkpt lat="47.26244" lon="-2.27321">
        <ele>37</ele>
        <time>2023-11-13T11:40:49Z</time>
      </trkpt>
      <trkpt lat="47.26309" lon="-2.27326">
        <ele>37</ele>
        <time>2023-11-13T11:42:16Z</time>
      </trkpt>
      <trkpt lat="47.26328" lon="-2.27331">
        <ele>36</ele>
        <time>2023-11-13T11:42:42Z</time>
      </trkpt>
      <trkpt lat="47.26331" lon="-2.27326">
        <ele>36</ele>
        <time>2023-11-13T11:42:48Z</time>
      </trkpt>
      <trkpt lat="47.26418" lon="-2.27335">
        <ele>35</ele>
        <time>2023-11-13T11:44:44Z</time>
      </trkpt>
      <trkpt lat="47.26429" lon="-2.27345">
        <ele>34</ele>
        <time>2023-11-13T11:45:01Z</time>
      </trkpt>
      <trkpt lat="47.26438" lon="-2.27364">
        <ele>33</ele>
        <time>2023-11-13T11:45:22Z</time>
      </trkpt>
      <trkpt lat="47.26464" lon="-2.27435">
        <ele>32</ele>
        <time>2023-11-13T11:46:35Z</time>
      </trkpt>
      <trkpt lat="47.26483" lon="-2.27501">
        <ele>31</ele>
        <time>2023-11-13T11:47:40Z</time>
      </trkpt>
      <trkpt lat="47.26486" lon="-2.27546">
        <ele>32</ele>
        <time>2023-11-13T11:48:21Z</time>
      </trkpt>
      <trkpt lat="47.26492" lon="-2.27561">
        <ele>32</ele>
        <time>2023-11-13T11:48:37Z</time>
      </trkpt>
      <trkpt lat="47.26499" lon="-2.27567">
        <ele>32</ele>
        <time>2023-11-13T11:48:48Z</time>
      </trkpt>
      <trkpt lat="47.26571" lon="-2.27581">
        <ele>31</ele>
        <time>2023-11-13T11:50:25Z</time>
      </trkpt>
      <trkpt lat="47.26623" lon="-2.27599">
        <ele>31</ele>
        <time>2023-11-13T11:51:36Z</time>
      </trkpt>
      <trkpt lat="47.26753" lon="-2.2766">
        <ele>30</ele>
        <time>2023-11-13T11:54:38Z</time>
      </trkpt>
      <trkpt lat="47.2676" lon="-2.27638">
        <ele>30</ele>
        <time>2023-11-13T11:55:00Z</time>
      </trkpt>
      <trkpt lat="47.26751" lon="-2.27576">
        <ele>31</ele>
        <time>2023-11-13T11:55:57Z</time>
      </trkpt>
      <trkpt lat="47.26746" lon="-2.27393">
        <ele>32</ele>
        <time>2023-11-13T11:58:43Z</time>
      </trkpt>
      <trkpt lat="47.26725" lon="-2.27248">
        <ele>33</ele>
        <time>2023-11-13T12:00:57Z</time>
      </trkpt>
      <trkpt lat="47.26722" lon="-2.27196">
        <ele>32</ele>
        <time>2023-11-13T12:01:45Z</time>
      </trkpt>
      <trkpt lat="47.26751" lon="-2.27178">
        <ele>31</ele>
        <time>2023-11-13T12:02:27Z</time>
      </trkpt>
      <trkpt lat="47.26765" lon="-2.27158">
        <ele>30</ele>
        <time>2023-11-13T12:02:53Z</time>
      </trkpt>
      <trkpt lat="47.26786" lon="-2.27141">
        <ele>30</ele>
        <time>2023-11-13T12:03:25Z</time>
      </trkpt>
      <trkpt lat="47.26837" lon="-2.27126">
        <ele>29</ele>
        <time>2023-11-13T12:04:34Z</time>
      </trkpt>
      <trkpt lat="47.26864" lon="-2.27114">
        <ele>29</ele>
        <time>2023-11-13T12:05:12Z</time>
      </trkpt>
      <trkpt lat="47.26874" lon="-2.27105">
        <ele>29</ele>
        <time>2023-11-13T12:05:27Z</time>
      </trkpt>
      <trkpt lat="47.26897" lon="-2.27072">
        <ele>28</ele>
        <time>2023-11-13T12:06:10Z</time>
      </trkpt>
      <trkpt lat="47.26931" lon="-2.27038">
        <ele>26</ele>
        <time>2023-11-13T12:07:05Z</time>
      </trkpt>
      <trkpt lat="47.26953" lon="-2.26999">
        <ele>25</ele>
        <time>2023-11-13T12:07:51Z</time>
      </trkpt>
      <trkpt lat="47.2697" lon="-2.26914">
        <ele>22</ele>
        <time>2023-11-13T12:09:11Z</time>
      </trkpt>
      <trkpt lat="47.2696" lon="-2.2685">
        <ele>22</ele>
        <time>2023-11-13T12:10:11Z</time>
      </trkpt>
      <trkpt lat="47.26936" lon="-2.26777">
        <ele>24</ele>
        <time>2023-11-13T12:11:24Z</time>
      </trkpt>
      <trkpt lat="47.26932" lon="-2.26743">
        <ele>24</ele>
        <time>2023-11-13T12:11:55Z</time>
      </trkpt>
      <trkpt lat="47.26919" lon="-2.26699">
        <ele>24</ele>
        <time>2023-11-13T12:12:39Z</time>
      </trkpt>
      <trkpt lat="47.26871" lon="-2.26578">
        <ele>24</ele>
        <time>2023-11-13T12:14:46Z</time>
      </trkpt>
      <trkpt lat="47.26871" lon="-2.26567">
        <ele>24</ele>
        <time>2023-11-13T12:14:56Z</time>
      </trkpt>
      <trkpt lat="47.26863" lon="-2.26554">
        <ele>24</ele>
        <time>2023-11-13T12:15:12Z</time>
      </trkpt>
      <trkpt lat="47.26869" lon="-2.26544">
        <ele>25</ele>
        <time>2023-11-13T12:15:24Z</time>
      </trkpt>
      <trkpt lat="47.26894" lon="-2.26534">
        <ele>25</ele>
        <time>2023-11-13T12:15:58Z</time>
      </trkpt>
      <trkpt lat="47.26906" lon="-2.26536">
        <ele>26</ele>
        <time>2023-11-13T12:16:14Z</time>
      </trkpt>
      <trkpt lat="47.26931" lon="-2.26515">
        <ele>26</ele>
        <time>2023-11-13T12:16:53Z</time>
      </trkpt>
      <trkpt lat="47.26964" lon="-2.26502">
        <ele>27</ele>
        <time>2023-11-13T12:17:38Z</time>
      </trkpt>
      <trkpt lat="47.26988" lon="-2.26481">
        <ele>26</ele>
        <time>2023-11-13T12:18:16Z</time>
      </trkpt>
      <trkpt lat="47.27029" lon="-2.26433">
        <ele>25</ele>
        <time>2023-11-13T12:19:25Z</time>
      </trkpt>
      <trkpt lat="47.27087" lon="-2.26338">
        <ele>23</ele>
        <time>2023-11-13T12:21:21Z</time>
      </trkpt>
      <trkpt lat="47.27116" lon="-2.26306">
        <ele>22</ele>
        <time>2023-11-13T12:22:10Z</time>
      </trkpt>
      <trkpt lat="47.27152" lon="-2.26251">
        <ele>21</ele>
        <time>2023-11-13T12:23:19Z</time>
      </trkpt>
      <trkpt lat="47.27193" lon="-2.26213">
        <ele>20</ele>
        <time>2023-11-13T12:24:23Z</time>
      </trkpt>
      <trkpt lat="47.27227" lon="-2.26172">
        <ele>21</ele>
        <time>2023-11-13T12:25:22Z</time>
      </trkpt>
      <trkpt lat="47.27246" lon="-2.26166">
        <ele>22</ele>
        <time>2023-11-13T12:25:48Z</time>
      </trkpt>
      <trkpt lat="47.27263" lon="-2.26152">
        <ele>22</ele>
        <time>2023-11-13T12:26:14Z</time>
      </trkpt>
      <trkpt lat="47.27334" lon="-2.26128">
        <ele>21</ele>
        <time>2023-11-13T12:27:51Z</time>
      </trkpt>
      <trkpt lat="47.27346" lon="-2.26119">
        <ele>21</ele>
        <time>2023-11-13T12:28:09Z</time>
      </trkpt>
      <trkpt lat="47.27413" lon="-2.26099">
        <ele>20</ele>
        <time>2023-11-13T12:29:40Z</time>
      </trkpt>
      <trkpt lat="47.27454" lon="-2.26075">
        <ele>19</ele>
        <time>2023-11-13T12:30:39Z</time>
      </trkpt>
      <trkpt lat="47.27546" lon="-2.25947">
        <ele>16</ele>
        <time>2023-11-13T12:33:28Z</time>
      </trkpt>
      <trkpt lat="47.276" lon="-2.25907">
        <ele>15</ele>
        <time>2023-11-13T12:34:49Z</time>
      </trkpt>
      <trkpt lat="47.27625" lon="-2.25883">
        <ele>15</ele>
        <time>2023-11-13T12:35:28Z</time>
      </trkpt>
      <trkpt lat="47.2769" lon="-2.25849">
        <ele>15</ele>
        <time>2023-11-13T12:37:01Z</time>
      </trkpt>
      <trkpt lat="47.27694" lon="-2.25854">
        <ele>15</ele>
        <time>2023-11-13T12:37:08Z</time>
      </trkpt>
      <trkpt lat="47.27699" lon="-2.25848">
        <ele>15</ele>
        <time>2023-11-13T12:37:16Z</time>
      </trkpt>
      <trkpt lat="47.27709" lon="-2.25849">
        <ele>14</ele>
        <time>2023-11-13T12:37:30Z</time>
      </trkpt>
      <trkpt lat="47.2772" lon="-2.2586">
        <ele>14</ele>
        <time>2023-11-13T12:37:47Z</time>
      </trkpt>
      <trkpt lat="47.27742" lon="-2.25857">
        <ele>14</ele>
        <time>2023-11-13T12:38:17Z</time>
      </trkpt>
      <trkpt lat="47.27757" lon="-2.25863">
        <ele>14</ele>
        <time>2023-11-13T12:38:37Z</time>
      </trkpt>
      <trkpt lat="47.27779" lon="-2.25914">
        <ele>12</ele>
        <time>2023-11-13T12:39:32Z</time>
      </trkpt>
      <trkpt lat="47.2779" lon="-2.25924">
        <ele>12</ele>
        <time>2023-11-13T12:39:49Z</time>
      </trkpt>
      <trkpt lat="47.27798" lon="-2.25951">
        <ele>11</ele>
        <time>2023-11-13T12:40:16Z</time>
      </trkpt>
      <trkpt lat="47.27799" lon="-2.25975">
        <ele>12</ele>
        <time>2023-11-13T12:40:38Z</time>
      </trkpt>
      <trkpt lat="47.27795" lon="-2.25987">
        <ele>12</ele>
        <time>2023-11-13T12:40:50Z</time>
      </trkpt>
      <trkpt lat="47.278" lon="-2.26013">
        <ele>12</ele>
        <time>2023-11-13T12:41:14Z</time>
      </trkpt>
      <trkpt lat="47.27785" lon="-2.26055">
        <ele>12</ele>
        <time>2023-11-13T12:41:57Z</time>
      </trkpt>
      <trkpt lat="47.27756" lon="-2.26086">
        <ele>14</ele>
        <time>2023-11-13T12:42:45Z</time>
      </trkpt>
      <trkpt lat="47.27771" lon="-2.26069">
        <ele>13</ele>
        <time>2023-11-13T12:43:10Z</time>
      </trkpt>
      <trkpt lat="47.27764" lon="-2.2607">
        <ele>14</ele>
        <time>2023-11-13T12:43:20Z</time>
      </trkpt>
      <trkpt lat="47.2776" lon="-2.26088">
        <ele>14</ele>
        <time>2023-11-13T12:43:37Z</time>
      </trkpt>
      <trkpt lat="47.27773" lon="-2.26064">
        <ele>13</ele>
        <time>2023-11-13T12:44:05Z</time>
      </trkpt>
      <trkpt lat="47.27783" lon="-2.26067">
        <ele>12</ele>
        <time>2023-11-13T12:44:18Z</time>
      </trkpt>
      <trkpt lat="47.27769" lon="-2.26062">
        <ele>14</ele>
        <time>2023-11-13T12:44:38Z</time>
      </trkpt>
      <trkpt lat="47.27786" lon="-2.2606">
        <ele>12</ele>
        <time>2023-11-13T12:45:00Z</time>
      </trkpt>
      <trkpt lat="47.27789" lon="-2.26066">
        <ele>12</ele>
        <time>2023-11-13T12:45:07Z</time>
      </trkpt>
      <trkpt lat="47.27784" lon="-2.26085">
        <ele>12</ele>
        <time>2023-11-13T12:45:26Z</time>
      </trkpt>
      <trkpt lat="47.27777" lon="-2.2608">
        <ele>13</ele>
        <time>2023-11-13T12:45:36Z</time>
      </trkpt>
      <trkpt lat="47.27777" lon="-2.26068">
        <ele>13</ele>
        <time>2023-11-13T12:45:47Z</time>
      </trkpt>
      <trkpt lat="47.27782" lon="-2.26068">
        <ele>12</ele>
        <time>2023-11-13T12:45:54Z</time>
      </trkpt>
      <trkpt lat="47.27775" lon="-2.26068">
        <ele>13</ele>
        <time>2023-11-13T12:46:03Z</time>
      </trkpt>
      <trkpt lat="47.27794" lon="-2.26062">
        <ele>12</ele>
        <time>2023-11-13T12:46:29Z</time>
      </trkpt>
      <trkpt lat="47.27756" lon="-2.26071">
        <ele>15</ele>
        <time>2023-11-13T12:47:20Z</time>
      </trkpt>
      <trkpt lat="47.27748" lon="-2.26092">
        <ele>15</ele>
        <time>2023-11-13T12:47:42Z</time>
      </trkpt>
      <trkpt lat="47.27756" lon="-2.26084">
        <ele>14</ele>
        <time>2023-11-13T12:47:55Z</time>
      </trkpt>
      <trkpt lat="47.27756" lon="-2.26083">
        <ele>14</ele>
        <time>2023-11-13T12:47:56Z</time>
      </trkpt>
      <trkpt lat="47.27764" lon="-2.26062">
        <ele>14</ele>
        <time>2023-11-13T12:48:18Z</time>
      </trkpt>
      <trkpt lat="47.27766" lon="-2.26073">
        <ele>14</ele>
        <time>2023-11-13T12:48:28Z</time>
      </trkpt>
      <trkpt lat="47.27762" lon="-2.26058">
        <ele>14</ele>
        <time>2023-11-13T12:48:42Z</time>
      </trkpt>
      <trkpt lat="47.27757" lon="-2.2606">
        <ele>15</ele>
        <time>2023-11-13T12:48:49Z</time>
      </trkpt>
      <trkpt lat="47.27756" lon="-2.26062">
        <ele>15</ele>
        <time>2023-11-13T12:48:52Z</time>
      </trkpt>
      <trkpt lat="47.27753" lon="-2.26062">
        <ele>15</ele>
        <time>2023-11-13T12:48:56Z</time>
      </trkpt>
      <trkpt lat="47.27766" lon="-2.26075">
        <ele>14</ele>
        <time>2023-11-13T12:49:17Z</time>
      </trkpt>
      <trkpt lat="47.27765" lon="-2.26067">
        <ele>14</ele>
        <time>2023-11-13T12:49:24Z</time>
      </trkpt>
      <trkpt lat="47.27758" lon="-2.26062">
        <ele>15</ele>
        <time>2023-11-13T12:49:34Z</time>
      </trkpt>
      <trkpt lat="47.27762" lon="-2.26069">
        <ele>14</ele>
        <time>2023-11-13T12:49:43Z</time>
      </trkpt>
      <trkpt lat="47.27767" lon="-2.2606">
        <ele>14</ele>
        <time>2023-11-13T12:49:53Z</time>
      </trkpt>
      <trkpt lat="47.27764" lon="-2.26035">
        <ele>14</ele>
        <time>2023-11-13T12:50:16Z</time>
      </trkpt>
      <trkpt lat="47.27762" lon="-2.26058">
        <ele>14</ele>
        <time>2023-11-13T12:50:37Z</time>
      </trkpt>
      <trkpt lat="47.27755" lon="-2.26054">
        <ele>15</ele>
        <time>2023-11-13T12:50:47Z</time>
      </trkpt>
      <trkpt lat="47.27752" lon="-2.26057">
        <ele>15</ele>
        <time>2023-11-13T12:50:52Z</time>
      </trkpt>
      <trkpt lat="47.27757" lon="-2.26058">
        <ele>15</ele>
        <time>2023-11-13T12:50:59Z</time>
      </trkpt>
      <trkpt lat="47.27758" lon="-2.26066">
        <ele>15</ele>
        <time>2023-11-13T12:51:06Z</time>
      </trkpt>
      <trkpt lat="47.27771" lon="-2.26083">
        <ele>13</ele>
        <time>2023-11-13T12:51:29Z</time>
      </trkpt>
      <trkpt lat="47.27758" lon="-2.26061">
        <ele>15</ele>
        <time>2023-11-13T12:51:56Z</time>
      </trkpt>
      <trkpt lat="47.27767" lon="-2.26062">
        <ele>14</ele>
        <time>2023-11-13T12:52:08Z</time>
      </trkpt>
      <trkpt lat="47.27752" lon="-2.26064">
        <ele>15</ele>
        <time>2023-11-13T12:52:28Z</time>
      </trkpt>
      <trkpt lat="47.27755" lon="-2.26065">
        <ele>15</ele>
        <time>2023-11-13T12:52:32Z</time>
      </trkpt>
      <trkpt lat="47.27755" lon="-2.26071">
        <ele>15</ele>
        <time>2023-11-13T12:52:37Z</time>
      </trkpt>
      <trkpt lat="47.27761" lon="-2.2607">
        <ele>14</ele>
        <time>2023-11-13T12:52:45Z</time>
      </trkpt>
      <trkpt lat="47.27759" lon="-2.26063">
        <ele>14</ele>
        <time>2023-11-13T12:52:52Z</time>
      </trkpt>
      <trkpt lat="47.27762" lon="-2.26066">
        <ele>14</ele>
        <time>2023-11-13T12:52:57Z</time>
      </trkpt>
      <trkpt lat="47.27768" lon="-2.26083">
        <ele>13</ele>
        <time>2023-11-13T12:53:15Z</time>
      </trkpt>
      <trkpt lat="47.27766" lon="-2.2609">
        <ele>14</ele>
        <time>2023-11-13T12:53:21Z</time>
      </trkpt>
      <trkpt lat="47.27759" lon="-2.26092">
        <ele>14</ele>
        <time>2023-11-13T12:53:31Z</time>
      </trkpt>
      <trkpt lat="47.27762" lon="-2.26087">
        <ele>14</ele>
        <time>2023-11-13T12:53:37Z</time>
      </trkpt>
      <trkpt lat="47.27762" lon="-2.26078">
        <ele>14</ele>
        <time>2023-11-13T12:53:45Z</time>
      </trkpt>
      <trkpt lat="47.27766" lon="-2.26089">
        <ele>14</ele>
        <time>2023-11-13T12:53:56Z</time>
      </trkpt>
      <trkpt lat="47.27762" lon="-2.26085">
        <ele>14</ele>
        <time>2023-11-13T12:54:03Z</time>
      </trkpt>
      <trkpt lat="47.27768" lon="-2.26073">
        <ele>14</ele>
        <time>2023-11-13T12:54:16Z</time>
      </trkpt>
      <trkpt lat="47.27765" lon="-2.26074">
        <ele>14</ele>
        <time>2023-11-13T12:54:20Z</time>
      </trkpt>
      <trkpt lat="47.27762" lon="-2.26092">
        <ele>14</ele>
        <time>2023-11-13T12:54:37Z</time>
      </trkpt>
      <trkpt lat="47.27764" lon="-2.26069">
        <ele>14</ele>
        <time>2023-11-13T12:54:58Z</time>
      </trkpt>
      <trkpt lat="47.27755" lon="-2.26082">
        <ele>15</ele>
        <time>2023-11-13T12:55:15Z</time>
      </trkpt>
      <trkpt lat="47.2776" lon="-2.26081">
        <ele>14</ele>
        <time>2023-11-13T12:55:22Z</time>
      </trkpt>
      <trkpt lat="47.27758" lon="-2.26092">
        <ele>14</ele>
        <time>2023-11-13T12:55:32Z</time>
      </trkpt>
      <trkpt lat="47.27761" lon="-2.26089">
        <ele>14</ele>
        <time>2023-11-13T12:55:37Z</time>
      </trkpt>
      <trkpt lat="47.27764" lon="-2.26092">
        <ele>14</ele>
        <time>2023-11-13T12:55:42Z</time>
      </trkpt>
      <trkpt lat="47.27761" lon="-2.26084">
        <ele>14</ele>
        <time>2023-11-13T12:55:50Z</time>
      </trkpt>
      <trkpt lat="47.27764" lon="-2.26088">
        <ele>14</ele>
        <time>2023-11-13T12:55:55Z</time>
      </trkpt>
      <trkpt lat="47.27765" lon="-2.26068">
        <ele>14</ele>
        <time>2023-11-13T12:56:14Z</time>
      </trkpt>
      <trkpt lat="47.27752" lon="-2.26086">
        <ele>15</ele>
        <time>2023-11-13T12:56:37Z</time>
      </trkpt>
      <trkpt lat="47.27734" lon="-2.26092">
        <ele>16</ele>
        <time>2023-11-13T12:57:02Z</time>
      </trkpt>
      <trkpt lat="47.27754" lon="-2.26078">
        <ele>15</ele>
        <time>2023-11-13T12:57:32Z</time>
      </trkpt>
      <trkpt lat="47.2776" lon="-2.26086">
        <ele>14</ele>
        <time>2023-11-13T12:57:42Z</time>
      </trkpt>
      <trkpt lat="47.27763" lon="-2.26085">
        <ele>14</ele>
        <time>2023-11-13T12:57:46Z</time>
      </trkpt>
      <trkpt lat="47.27767" lon="-2.261">
        <ele>14</ele>
        <time>2023-11-13T12:58:01Z</time>
      </trkpt>
      <trkpt lat="47.27771" lon="-2.26156">
        <ele>13</ele>
        <time>2023-11-13T12:58:52Z</time>
      </trkpt>
      <trkpt lat="47.27753" lon="-2.26215">
        <ele>14</ele>
        <time>2023-11-13T12:59:51Z</time>
      </trkpt>
      <trkpt lat="47.27726" lon="-2.26264">
        <ele>14</ele>
        <time>2023-11-13T13:00:48Z</time>
      </trkpt>
      <trkpt lat="47.27685" lon="-2.26323">
        <ele>15</ele>
        <time>2023-11-13T13:02:04Z</time>
      </trkpt>
      <trkpt lat="47.2767" lon="-2.26354">
        <ele>15</ele>
        <time>2023-11-13T13:02:39Z</time>
      </trkpt>
      <trkpt lat="47.27707" lon="-2.26453">
        <ele>11</ele>
        <time>2023-11-13T13:04:21Z</time>
      </trkpt>
      <trkpt lat="47.27718" lon="-2.26464">
        <ele>11</ele>
        <time>2023-11-13T13:04:39Z</time>
      </trkpt>
      <trkpt lat="47.27718" lon="-2.2648">
        <ele>11</ele>
        <time>2023-11-13T13:04:53Z</time>
      </trkpt>
      <trkpt lat="47.27724" lon="-2.26487">
        <ele>11</ele>
        <time>2023-11-13T13:05:03Z</time>
      </trkpt>
      <trkpt lat="47.27726" lon="-2.265">
        <ele>11</ele>
        <time>2023-11-13T13:05:16Z</time>
      </trkpt>
      <trkpt lat="47.27747" lon="-2.26516">
        <ele>11</ele>
        <time>2023-11-13T13:05:47Z</time>
      </trkpt>
      <trkpt lat="47.27767" lon="-2.26507">
        <ele>11</ele>
        <time>2023-11-13T13:06:15Z</time>
      </trkpt>
      <trkpt lat="47.27805" lon="-2.26463">
        <ele>12</ele>
        <time>2023-11-13T13:07:19Z</time>
      </trkpt>
      <trkpt lat="47.2784" lon="-2.26412">
        <ele>13</ele>
        <time>2023-11-13T13:08:25Z</time>
      </trkpt>
      <trkpt lat="47.27932" lon="-2.26252">
        <ele>15</ele>
        <time>2023-11-13T13:11:35Z</time>
      </trkpt>
      <trkpt lat="47.27954" lon="-2.26171">
        <ele>15</ele>
        <time>2023-11-13T13:12:54Z</time>
      </trkpt>
      <trkpt lat="47.27964" lon="-2.26042">
        <ele>12</ele>
        <time>2023-11-13T13:14:52Z</time>
      </trkpt>
      <trkpt lat="47.27973" lon="-2.25991">
        <ele>12</ele>
        <time>2023-11-13T13:15:39Z</time>
      </trkpt>
      <trkpt lat="47.27969" lon="-2.25983">
        <ele>12</ele>
        <time>2023-11-13T13:15:48Z</time>
      </trkpt>
      <trkpt lat="47.27957" lon="-2.25995">
        <ele>11</ele>
        <time>2023-11-13T13:16:08Z</time>
      </trkpt>
      <trkpt lat="47.27957" lon="-2.26004">
        <ele>11</ele>
        <time>2023-11-13T13:16:16Z</time>
      </trkpt>
      <trkpt lat="47.27985" lon="-2.25972">
        <ele>12</ele>
        <time>2023-11-13T13:17:03Z</time>
      </trkpt>
      <trkpt lat="47.27998" lon="-2.25927">
        <ele>13</ele>
        <time>2023-11-13T13:17:47Z</time>
      </trkpt>
      <trkpt lat="47.28013" lon="-2.25913">
        <ele>13</ele>
        <time>2023-11-13T13:18:11Z</time>
      </trkpt>
      <trkpt lat="47.28051" lon="-2.25854">
        <ele>13</ele>
        <time>2023-11-13T13:19:25Z</time>
      </trkpt>
      <trkpt lat="47.28089" lon="-2.25811">
        <ele>14</ele>
        <time>2023-11-13T13:20:29Z</time>
      </trkpt>
      <trkpt lat="47.28105" lon="-2.2572">
        <ele>14</ele>
        <time>2023-11-13T13:21:54Z</time>
      </trkpt>
      <trkpt lat="47.28101" lon="-2.25652">
        <ele>16</ele>
        <time>2023-11-13T13:22:55Z</time>
      </trkpt>
      <trkpt lat="47.28124" lon="-2.25613">
        <ele>16</ele>
        <time>2023-11-13T13:23:42Z</time>
      </trkpt>
      <trkpt lat="47.28122" lon="-2.25568">
        <ele>16</ele>
        <time>2023-11-13T13:24:23Z</time>
      </trkpt>
      <trkpt lat="47.28124" lon="-2.25478">
        <ele>15</ele>
        <time>2023-11-13T13:25:45Z</time>
      </trkpt>
      <trkpt lat="47.2813" lon="-2.25462">
        <ele>16</ele>
        <time>2023-11-13T13:26:01Z</time>
      </trkpt>
      <trkpt lat="47.28175" lon="-2.25432">
        <ele>17</ele>
        <time>2023-11-13T13:27:07Z</time>
      </trkpt>
      <trkpt lat="47.28198" lon="-2.25406">
        <ele>18</ele>
        <time>2023-11-13T13:27:46Z</time>
      </trkpt>
      <trkpt lat="47.28275" lon="-2.25358">
        <ele>21</ele>
        <time>2023-11-13T13:29:37Z</time>
      </trkpt>
      <trkpt lat="47.28291" lon="-2.2536">
        <ele>22</ele>
        <time>2023-11-13T13:29:59Z</time>
      </trkpt>
      <trkpt lat="47.2831" lon="-2.25354">
        <ele>23</ele>
        <time>2023-11-13T13:30:25Z</time>
      </trkpt>
      <trkpt lat="47.28396" lon="-2.25315">
        <ele>25</ele>
        <time>2023-11-13T13:32:25Z</time>
      </trkpt>
      <trkpt lat="47.2842" lon="-2.25234">
        <ele>21</ele>
        <time>2023-11-13T13:33:45Z</time>
      </trkpt>
      <trkpt lat="47.28438" lon="-2.25101">
        <ele>16</ele>
        <time>2023-11-13T13:35:48Z</time>
      </trkpt>
      <trkpt lat="47.28421" lon="-2.2509">
        <ele>15</ele>
        <time>2023-11-13T13:36:12Z</time>
      </trkpt>
      <trkpt lat="47.28408" lon="-2.25071">
        <ele>14</ele>
        <time>2023-11-13T13:36:37Z</time>
      </trkpt>
      <trkpt lat="47.28408" lon="-2.25033">
        <ele>12</ele>
        <time>2023-11-13T13:37:11Z</time>
      </trkpt>
      <trkpt lat="47.28398" lon="-2.24926">
        <ele>7</ele>
        <time>2023-11-13T13:38:49Z</time>
      </trkpt>
      <trkpt lat="47.28388" lon="-2.24869">
        <ele>6</ele>
        <time>2023-11-13T13:39:42Z</time>
      </trkpt>
      <trkpt lat="47.28393" lon="-2.24843">
        <ele>5</ele>
        <time>2023-11-13T13:40:07Z</time>
      </trkpt>
      <trkpt lat="47.28403" lon="-2.2483">
        <ele>4</ele>
        <time>2023-11-13T13:40:24Z</time>
      </trkpt>
      <trkpt lat="47.28405" lon="-2.24817">
        <ele>5</ele>
        <time>2023-11-13T13:40:37Z</time>
      </trkpt>
      <trkpt lat="47.28395" lon="-2.24809">
        <ele>5</ele>
        <time>2023-11-13T13:40:52Z</time>
      </trkpt>
      <trkpt lat="47.28369" lon="-2.24753">
        <ele>7</ele>
        <time>2023-11-13T13:41:53Z</time>
      </trkpt>
      <trkpt lat="47.28349" lon="-2.24628">
        <ele>10</ele>
        <time>2023-11-13T13:43:49Z</time>
      </trkpt>
      <trkpt lat="47.28312" lon="-2.24578">
        <ele>13</ele>
        <time>2023-11-13T13:44:56Z</time>
      </trkpt>
      <trkpt lat="47.2828" lon="-2.24569">
        <ele>14</ele>
        <time>2023-11-13T13:45:40Z</time>
      </trkpt>
      <trkpt lat="47.28273" lon="-2.24547">
        <ele>15</ele>
        <time>2023-11-13T13:46:02Z</time>
      </trkpt>
      <trkpt lat="47.28231" lon="-2.24468">
        <ele>20</ele>
        <time>2023-11-13T13:47:33Z</time>
      </trkpt>
      <trkpt lat="47.28209" lon="-2.24445">
        <ele>21</ele>
        <time>2023-11-13T13:48:09Z</time>
      </trkpt>
      <trkpt lat="47.28208" lon="-2.24434">
        <ele>22</ele>
        <time>2023-11-13T13:48:19Z</time>
      </trkpt>
      <trkpt lat="47.28201" lon="-2.24428">
        <ele>22</ele>
        <time>2023-11-13T13:48:30Z</time>
      </trkpt>
      <trkpt lat="47.28182" lon="-2.24371">
        <ele>23</ele>
        <time>2023-11-13T13:49:27Z</time>
      </trkpt>
      <trkpt lat="47.28181" lon="-2.24354">
        <ele>24</ele>
        <time>2023-11-13T13:49:43Z</time>
      </trkpt>
      <trkpt lat="47.28164" lon="-2.24298">
        <ele>25</ele>
        <time>2023-11-13T13:50:38Z</time>
      </trkpt>
      <trkpt lat="47.28132" lon="-2.2426">
        <ele>25</ele>
        <time>2023-11-13T13:51:33Z</time>
      </trkpt>
      <trkpt lat="47.2813" lon="-2.2424">
        <ele>24</ele>
        <time>2023-11-13T13:51:51Z</time>
      </trkpt>
      <trkpt lat="47.28102" lon="-2.24228">
        <ele>24</ele>
        <time>2023-11-13T13:52:30Z</time>
      </trkpt>
      <trkpt lat="47.28076" lon="-2.24166">
        <ele>22</ele>
        <time>2023-11-13T13:53:36Z</time>
      </trkpt>
      <trkpt lat="47.28059" lon="-2.24146">
        <ele>22</ele>
        <time>2023-11-13T13:54:05Z</time>
      </trkpt>
      <trkpt lat="47.28041" lon="-2.24128">
        <ele>22</ele>
        <time>2023-11-13T13:54:34Z</time>
      </trkpt>
      <trkpt lat="47.28028" lon="-2.24137">
        <ele>22</ele>
        <time>2023-11-13T13:54:53Z</time>
      </trkpt>
      <trkpt lat="47.28005" lon="-2.24178">
        <ele>23</ele>
        <time>2023-11-13T13:55:41Z</time>
      </trkpt>
      <trkpt lat="47.27945" lon="-2.24267">
        <ele>24</ele>
        <time>2023-11-13T13:57:35Z</time>
      </trkpt>
      <trkpt lat="47.27922" lon="-2.24287">
        <ele>23</ele>
        <time>2023-11-13T13:58:11Z</time>
      </trkpt>
      <trkpt lat="47.27896" lon="-2.24323">
        <ele>22</ele>
        <time>2023-11-13T13:58:58Z</time>
      </trkpt>
      <trkpt lat="47.27873" lon="-2.24342">
        <ele>22</ele>
        <time>2023-11-13T13:59:33Z</time>
      </trkpt>
      <trkpt lat="47.27801" lon="-2.24341">
        <ele>22</ele>
        <time>2023-11-13T14:01:10Z</time>
      </trkpt>
      <trkpt lat="47.27782" lon="-2.24329">
        <ele>21</ele>
        <time>2023-11-13T14:01:37Z</time>
      </trkpt>
      <trkpt lat="47.27771" lon="-2.24348">
        <ele>21</ele>
        <time>2023-11-13T14:02:00Z</time>
      </trkpt>
      <trkpt lat="47.27735" lon="-2.24364">
        <ele>21</ele>
        <time>2023-11-13T14:02:50Z</time>
      </trkpt>
      <trkpt lat="47.27721" lon="-2.24366">
        <ele>21</ele>
        <time>2023-11-13T14:03:09Z</time>
      </trkpt>
      <trkpt lat="47.27718" lon="-2.24361">
        <ele>21</ele>
        <time>2023-11-13T14:03:15Z</time>
      </trkpt>
      <trkpt lat="47.27674" lon="-2.2438">
        <ele>21</ele>
        <time>2023-11-13T14:04:16Z</time>
      </trkpt>
      <trkpt lat="47.27666" lon="-2.24392">
        <ele>21</ele>
        <time>2023-11-13T14:04:31Z</time>
      </trkpt>
      <trkpt lat="47.2764" lon="-2.24395">
        <ele>20</ele>
        <time>2023-11-13T14:05:06Z</time>
      </trkpt>
      <trkpt lat="47.2761" lon="-2.24416">
        <ele>19</ele>
        <time>2023-11-13T14:05:50Z</time>
      </trkpt>
      <trkpt lat="47.27576" lon="-2.24422">
        <ele>18</ele>
        <time>2023-11-13T14:06:36Z</time>
      </trkpt>
      <trkpt lat="47.27556" lon="-2.24421">
        <ele>17</ele>
        <time>2023-11-13T14:07:03Z</time>
      </trkpt>
      <trkpt lat="47.27546" lon="-2.24415">
        <ele>16</ele>
        <time>2023-11-13T14:07:17Z</time>
      </trkpt>
      <trkpt lat="47.27484" lon="-2.24431">
        <ele>15</ele>
        <time>2023-11-13T14:08:41Z</time>
      </trkpt>
      <trkpt lat="47.2747" lon="-2.24425">
        <ele>15</ele>
        <time>2023-11-13T14:09:01Z</time>
      </trkpt>
      <trkpt lat="47.27446" lon="-2.24379">
        <ele>15</ele>
        <time>2023-11-13T14:09:53Z</time>
      </trkpt>
      <trkpt lat="47.27445" lon="-2.24341">
        <ele>16</ele>
        <time>2023-11-13T14:10:28Z</time>
      </trkpt>
      <trkpt lat="47.27486" lon="-2.24289">
        <ele>17</ele>
        <time>2023-11-13T14:11:40Z</time>
      </trkpt>
      <trkpt lat="47.27485" lon="-2.24242">
        <ele>18</ele>
        <time>2023-11-13T14:12:22Z</time>
      </trkpt>
      <trkpt lat="47.27468" lon="-2.24209">
        <ele>18</ele>
        <time>2023-11-13T14:13:00Z</time>
      </trkpt>
      <trkpt lat="47.27444" lon="-2.24133">
        <ele>18</ele>
        <time>2023-11-13T14:14:16Z</time>
      </trkpt>
      <trkpt lat="47.2743" lon="-2.241">
        <ele>18</ele>
        <time>2023-11-13T14:14:51Z</time>
      </trkpt>
      <trkpt lat="47.2738" lon="-2.24075">
        <ele>18</ele>
        <time>2023-11-13T14:16:01Z</time>
      </trkpt>
      <trkpt lat="47.27372" lon="-2.24059">
        <ele>18</ele>
        <time>2023-11-13T14:16:19Z</time>
      </trkpt>
      <trkpt lat="47.27356" lon="-2.24046">
        <ele>17</ele>
        <time>2023-11-13T14:16:44Z</time>
      </trkpt>
      <trkpt lat="47.27344" lon="-2.24029">
        <ele>17</ele>
        <time>2023-11-13T14:17:06Z</time>
      </trkpt>
      <trkpt lat="47.27331" lon="-2.23987">
        <ele>15</ele>
        <time>2023-11-13T14:17:48Z</time>
      </trkpt>
      <trkpt lat="47.273" lon="-2.23975">
        <ele>14</ele>
        <time>2023-11-13T14:18:31Z</time>
      </trkpt>
      <trkpt lat="47.27276" lon="-2.23842">
        <ele>13</ele>
        <time>2023-11-13T14:20:35Z</time>
      </trkpt>
      <trkpt lat="47.27272" lon="-2.23737">
        <ele>13</ele>
        <time>2023-11-13T14:22:10Z</time>
      </trkpt>
      <trkpt lat="47.27246" lon="-2.23681">
        <ele>14</ele>
        <time>2023-11-13T14:23:12Z</time>
      </trkpt>
      <trkpt lat="47.27226" lon="-2.23658">
        <ele>14</ele>
        <time>2023-11-13T14:23:46Z</time>
      </trkpt>
      <trkpt lat="47.27208" lon="-2.23673">
        <ele>15</ele>
        <time>2023-11-13T14:24:13Z</time>
      </trkpt>
      <trkpt lat="47.27179" lon="-2.23689">
        <ele>15</ele>
        <time>2023-11-13T14:24:55Z</time>
      </trkpt>
      <trkpt lat="47.27168" lon="-2.23692">
        <ele>15</ele>
        <time>2023-11-13T14:25:10Z</time>
      </trkpt>
      <trkpt lat="47.2715" lon="-2.23706">
        <ele>16</ele>
        <time>2023-11-13T14:25:37Z</time>
      </trkpt>
      <trkpt lat="47.27123" lon="-2.2372">
        <ele>16</ele>
        <time>2023-11-13T14:26:15Z</time>
      </trkpt>
      <trkpt lat="47.27097" lon="-2.23707">
        <ele>17</ele>
        <time>2023-11-13T14:26:52Z</time>
      </trkpt>
      <trkpt lat="47.27091" lon="-2.23685">
        <ele>17</ele>
        <time>2023-11-13T14:27:13Z</time>
      </trkpt>
      <trkpt lat="47.27082" lon="-2.23682">
        <ele>17</ele>
        <time>2023-11-13T14:27:25Z</time>
      </trkpt>
      <trkpt lat="47.27051" lon="-2.23682">
        <ele>17</ele>
        <time>2023-11-13T14:28:07Z</time>
      </trkpt>
      <trkpt lat="47.27001" lon="-2.23711">
        <ele>19</ele>
        <time>2023-11-13T14:29:18Z</time>
      </trkpt>
      <trkpt lat="47.26986" lon="-2.23704">
        <ele>19</ele>
        <time>2023-11-13T14:29:39Z</time>
      </trkpt>
      <trkpt lat="47.26972" lon="-2.2367">
        <ele>18</ele>
        <time>2023-11-13T14:30:15Z</time>
      </trkpt>
      <trkpt lat="47.26969" lon="-2.23566">
        <ele>15</ele>
        <time>2023-11-13T14:31:50Z</time>
      </trkpt>
      <trkpt lat="47.26929" lon="-2.23428">
        <ele>13</ele>
        <time>2023-11-13T14:34:06Z</time>
      </trkpt>
      <trkpt lat="47.26938" lon="-2.23371">
        <ele>12</ele>
        <time>2023-11-13T14:34:59Z</time>
      </trkpt>
      <trkpt lat="47.26914" lon="-2.2337">
        <ele>12</ele>
        <time>2023-11-13T14:35:31Z</time>
      </trkpt>
      <trkpt lat="47.26901" lon="-2.23379">
        <ele>12</ele>
        <time>2023-11-13T14:35:50Z</time>
      </trkpt>
      <trkpt lat="47.26867" lon="-2.23383">
        <ele>13</ele>
        <time>2023-11-13T14:36:35Z</time>
      </trkpt>
      <trkpt lat="47.2686" lon="-2.2337">
        <ele>13</ele>
        <time>2023-11-13T14:36:50Z</time>
      </trkpt>
      <trkpt lat="47.2682" lon="-2.23352">
        <ele>13</ele>
        <time>2023-11-13T14:37:46Z</time>
      </trkpt>
      <trkpt lat="47.26804" lon="-2.23325">
        <ele>12</ele>
        <time>2023-11-13T14:38:19Z</time>
      </trkpt>
      <trkpt lat="47.26794" lon="-2.23338">
        <ele>12</ele>
        <time>2023-11-13T14:38:36Z</time>
      </trkpt>
      <trkpt lat="47.26791" lon="-2.2332">
        <ele>11</ele>
        <time>2023-11-13T14:38:53Z</time>
      </trkpt>
      <trkpt lat="47.26764" lon="-2.23313">
        <ele>11</ele>
        <time>2023-11-13T14:39:30Z</time>
      </trkpt>
      <trkpt lat="47.26774" lon="-2.23265">
        <ele>9</ele>
        <time>2023-11-13T14:40:15Z</time>
      </trkpt>
      <trkpt lat="47.2675" lon="-2.23237">
        <ele>8</ele>
        <time>2023-11-13T14:40:56Z</time>
      </trkpt>
      <trkpt lat="47.26719" lon="-2.23185">
        <ele>8</ele>
        <time>2023-11-13T14:41:59Z</time>
      </trkpt>
      <trkpt lat="47.26702" lon="-2.23133">
        <ele>8</ele>
        <time>2023-11-13T14:42:51Z</time>
      </trkpt>
      <trkpt lat="47.26694" lon="-2.23066">
        <ele>7</ele>
        <time>2023-11-13T14:43:53Z</time>
      </trkpt>
      <trkpt lat="47.26698" lon="-2.23059">
        <ele>7</ele>
        <time>2023-11-13T14:44:01Z</time>
      </trkpt>
      <trkpt lat="47.26696" lon="-2.22924">
        <ele>4</ele>
        <time>2023-11-13T14:46:03Z</time>
      </trkpt>
      <trkpt lat="47.26691" lon="-2.22883">
        <ele>4</ele>
        <time>2023-11-13T14:46:41Z</time>
      </trkpt>
      <trkpt lat="47.26678" lon="-2.22841">
        <ele>3</ele>
        <time>2023-11-13T14:47:23Z</time>
      </trkpt>
      <trkpt lat="47.26682" lon="-2.22811">
        <ele>4</ele>
        <time>2023-11-13T14:47:50Z</time>
      </trkpt>
      <trkpt lat="47.26695" lon="-2.22801">
        <ele>4</ele>
        <time>2023-11-13T14:48:10Z</time>
      </trkpt>
      <trkpt lat="47.26693" lon="-2.22776">
        <ele>5</ele>
        <time>2023-11-13T14:48:33Z</time>
      </trkpt>
      <trkpt lat="47.26623" lon="-2.22729">
        <ele>6</ele>
        <time>2023-11-13T14:50:15Z</time>
      </trkpt>
      <trkpt lat="47.26575" lon="-2.22658">
        <ele>6</ele>
        <time>2023-11-13T14:51:46Z</time>
      </trkpt>
      <trkpt lat="47.26519" lon="-2.22601">
        <ele>5</ele>
        <time>2023-11-13T14:53:17Z</time>
      </trkpt>
      <trkpt lat="47.2651" lon="-2.22576">
        <ele>5</ele>
        <time>2023-11-13T14:53:43Z</time>
      </trkpt>
      <trkpt lat="47.26518" lon="-2.22549">
        <ele>6</ele>
        <time>2023-11-13T14:54:09Z</time>
      </trkpt>
      <trkpt lat="47.26499" lon="-2.22495">
        <ele>5</ele>
        <time>2023-11-13T14:55:04Z</time>
      </trkpt>
      <trkpt lat="47.265" lon="-2.22478">
        <ele>4</ele>
        <time>2023-11-13T14:55:20Z</time>
      </trkpt>
      <trkpt lat="47.26514" lon="-2.22454">
        <ele>4</ele>
        <time>2023-11-13T14:55:48Z</time>
      </trkpt>
      <trkpt lat="47.26529" lon="-2.22446">
        <ele>5</ele>
        <time>2023-11-13T14:56:10Z</time>
      </trkpt>
      <trkpt lat="47.2656" lon="-2.22389">
        <ele>5</ele>
        <time>2023-11-13T14:57:16Z</time>
      </trkpt>
      <trkpt lat="47.26569" lon="-2.2236">
        <ele>5</ele>
        <time>2023-11-13T14:57:45Z</time>
      </trkpt>
      <trkpt lat="47.26588" lon="-2.22343">
        <ele>5</ele>
        <time>2023-11-13T14:58:14Z</time>
      </trkpt>
      <trkpt lat="47.26628" lon="-2.22264">
        <ele>4</ele>
        <time>2023-11-13T14:59:44Z</time>
      </trkpt>
      <trkpt lat="47.26652" lon="-2.22236">
        <ele>4</ele>
        <time>2023-11-13T15:00:25Z</time>
      </trkpt>
      <trkpt lat="47.26669" lon="-2.22186">
        <ele>5</ele>
        <time>2023-11-13T15:01:15Z</time>
      </trkpt>
      <trkpt lat="47.26692" lon="-2.2216">
        <ele>5</ele>
        <time>2023-11-13T15:01:54Z</time>
      </trkpt>
      <trkpt lat="47.26723" lon="-2.22153">
        <ele>5</ele>
        <time>2023-11-13T15:02:36Z</time>
      </trkpt>
      <trkpt lat="47.26736" lon="-2.22132">
        <ele>5</ele>
        <time>2023-11-13T15:03:01Z</time>
      </trkpt>
      <trkpt lat="47.26742" lon="-2.2213">
        <ele>5</ele>
        <time>2023-11-13T15:03:10Z</time>
      </trkpt>
      <trkpt lat="47.26786" lon="-2.2215">
        <ele>6</ele>
        <time>2023-11-13T15:04:11Z</time>
      </trkpt>
      <trkpt lat="47.26832" lon="-2.22204">
        <ele>6</ele>
        <time>2023-11-13T15:05:30Z</time>
      </trkpt>
      <trkpt lat="47.26982" lon="-2.22308">
        <ele>5</ele>
        <time>2023-11-13T15:09:11Z</time>
      </trkpt>
      <trkpt lat="47.27025" lon="-2.2235">
        <ele>5</ele>
        <time>2023-11-13T15:10:20Z</time>
      </trkpt>
      <trkpt lat="47.27038" lon="-2.22354">
        <ele>5</ele>
        <time>2023-11-13T15:10:37Z</time>
      </trkpt>
      <trkpt lat="47.27069" lon="-2.22345">
        <ele>5</ele>
        <time>2023-11-13T15:11:20Z</time>
      </trkpt>
      <trkpt lat="47.27077" lon="-2.2233">
        <ele>5</ele>
        <time>2023-11-13T15:11:37Z</time>
      </trkpt>
      <trkpt lat="47.27089" lon="-2.22346">
        <ele>6</ele>
        <time>2023-11-13T15:11:58Z</time>
      </trkpt>
      <trkpt lat="47.2714" lon="-2.22419">
        <ele>9</ele>
        <time>2023-11-13T15:13:33Z</time>
      </trkpt>
      <trkpt lat="47.27163" lon="-2.22487">
        <ele>11</ele>
        <time>2023-11-13T15:14:42Z</time>
      </trkpt>
      <trkpt lat="47.27177" lon="-2.22512">
        <ele>10</ele>
        <time>2023-11-13T15:15:11Z</time>
      </trkpt>
      <trkpt lat="47.27191" lon="-2.22531">
        <ele>9</ele>
        <time>2023-11-13T15:15:37Z</time>
      </trkpt>
      <trkpt lat="47.27221" lon="-2.22544">
        <ele>8</ele>
        <time>2023-11-13T15:16:19Z</time>
      </trkpt>
      <trkpt lat="47.27225" lon="-2.22559">
        <ele>8</ele>
        <time>2023-11-13T15:16:33Z</time>
      </trkpt>
      <trkpt lat="47.27208" lon="-2.22583">
        <ele>8</ele>
        <time>2023-11-13T15:17:05Z</time>
      </trkpt>
      <trkpt lat="47.27176" lon="-2.22646">
        <ele>8</ele>
        <time>2023-11-13T15:18:16Z</time>
      </trkpt>
      <trkpt lat="47.27165" lon="-2.2265">
        <ele>8</ele>
        <time>2023-11-13T15:18:31Z</time>
      </trkpt>
      <trkpt lat="47.27125" lon="-2.22732">
        <ele>6</ele>
        <time>2023-11-13T15:20:02Z</time>
      </trkpt>
      <trkpt lat="47.2713" lon="-2.22815">
        <ele>6</ele>
        <time>2023-11-13T15:21:18Z</time>
      </trkpt>
      <trkpt lat="47.27136" lon="-2.22838">
        <ele>6</ele>
        <time>2023-11-13T15:21:40Z</time>
      </trkpt>
      <trkpt lat="47.27151" lon="-2.22836">
        <ele>6</ele>
        <time>2023-11-13T15:22:00Z</time>
      </trkpt>
      <trkpt lat="47.27162" lon="-2.22847">
        <ele>6</ele>
        <time>2023-11-13T15:22:18Z</time>
      </trkpt>
      <trkpt lat="47.27179" lon="-2.22853">
        <ele>6</ele>
        <time>2023-11-13T15:22:41Z</time>
      </trkpt>
      <trkpt lat="47.27176" lon="-2.22846">
        <ele>6</ele>
        <time>2023-11-13T15:22:49Z</time>
      </trkpt>
      <trkpt lat="47.27173" lon="-2.22845">
        <ele>6</ele>
        <time>2023-11-13T15:22:53Z</time>
      </trkpt>
      <trkpt lat="47.27176" lon="-2.22841">
        <ele>6</ele>
        <time>2023-11-13T15:22:58Z</time>
      </trkpt>
      <trkpt lat="47.27177" lon="-2.22841">
        <ele>6</ele>
        <time>2023-11-13T15:23:00Z</time>
      </trkpt>
    </trkseg>
  </trk>
</gpx>